Temp
34 34 35 35 37 37 37 38 38 39 39 39 38 39 39 39 39 38 38 39 39 40 39 38 37 38 38 39 36 37 38 38 39 39 39 39 38 37 36 36 33 31 31 38 44 43 44 45 43 40 41 39 39 39 38 37 40 40 40 40 40 40 37
31 32 32 33 34 35 36 36 37 38 38 38 37 37 38 38 38 37 37 37 37 38 38 37 36 36 37 38 34 34 35 36 36 35 36 37 35 36 35 38 33 32 32 30 39 40 43 43 43 39 42 39 39 37 38 36 37 39 40 39 40 40 40
30 30 30 30 31 32 32 33 34 35 35 36 36 36 37 37 37 36 35 35 36 36 37 36 34 34 35 35 33 33 34 34 34 35 34 33 35 34 36 37 37 33 29 29 32 39 39 40 39 39 40 40 39 39 38 36 36 37 38 38 39 39 40
28 27 28 28 29 30 30 30 31 31 32 32 33 34 34 35 35 35 35 34 35 35 35 34 33 33 35 33 31 31 32 33 33 33 33 32 33 33 34 35 36 35 31 30 29 35 37 39 38 38 40 41 39 38 37 36 36 37 36 37 36 38 39
26 26 27 27 27 28 29 29 29 29 29 30 30 31 31 32 32 33 33 33 33 33 32 32 32 33 32 32 30 30 31 32 31 31 31 30 31 32 32 32 32 32 32 30 28 30 35 38 38 38 38 39 36 36 35 36 35 35 34 35 36 37 38
25 25 25 26 27 27 27 28 28 28 29 29 30 31 31 30 30 32 31 32 33 33 32 32 32 33 32 31 30 30 31 31 30 30 29 29 29 30 30 30 30 30 29 29 28 28 28 34 34 35 35 37 36 34 33 32 32 34 31 30 30 32 34
23 24 25 25 26 25 25 26 26 27 28 28 29 27 27 28 29 30 30 30 31 32 32 32 31 31 31 30 30 29 29 30 29 29 28 29 28 29 28 27 27 27 26 26 25 26 27 28 32 33 30 35 36 35 34 31 29 26 29 29 29 28 30
21 22 23 23 24 24 25 25 24 26 26 25 25 25 26 27 28 28 29 29 29 30 30 30 30 30 30 30 30 29 29 29 28 29 28 29 29 28 27 26 26 26 25 25 24 25 25 28 28 30 32 33 33 30 30 32 31 27 26 26 27 28 27
21 21 20 21 21 21 21 20 21 22 22 22 24 26 26 26 26 26 26 27 28 28 29 29 29 29 29 30 30 30 30 30 30 29 28 28 28 27 26 26 25 25 25 24 23 23 25 26 26 27 27 27 26 24 26 31 30 27 29 27 25 24 27
19 17 17 17 17 17 18 18 19 20 22 25 25 25 26 26 26 26 25 25 25 26 27 27 28 28 29 29 29 29 29 29 30 30 29 28 28 27 26 25 24 24 24 23 22 22 23 23 23 25 28 27 28 29 29 27 27 24 26 24 21 21 22
15 15 16 16 14 14 15 16 17 19 23 25 26 26 24 22 21 22 22 22 21 21 23 24 25 25 27 27 27 27 28 28 28 29 29 29 29 29 27 25 24 23 24 23 22 23 23 22 22 25 27 28 28 29 27 27 27 24 22 19 17 15 20
13 13 13 13 12 12 13 14 16 20 22 24 25 25 22 21 20 21 21 21 20 20 20 21 22 22 23 23 24 24 25 26 27 27 28 28 28 28 29 29 27 25 24 23 22 22 23 23 23 24 26 26 26 26 26 25 24 22 20 20 18 19 18
12 11 11 11 10 10 12 12 14 18 21 22 23 25 21 20 18 20 19 18 18 17 18 19 19 19 20 21 22 23 22 22 23 25 26 26 27 27 28 28 29 29 27 26 24 22 22 24 24 23 25 27 25 26 21 21 20 20 21 20 19 20 21
10 10 9 8 8 9 10 9 13 18 20 21 22 24 21 17 17 18 17 17 17 17 17 17 17 18 18 20 19 20 20 20 21 21 22 23 24 24 26 27 28 28 28 27 25 24 22 24 26 24 26 27 25 22 21 21 19 20 18 18 19 21 23
9 8 8 7 7 8 8 9 15 17 19 21 22 23 21 17 17 18 17 16 16 16 16 17 16 17 17 17 17 18 19 19 20 21 21 22 22 22 23 24 25 26 26 27 26 26 25 25 26 26 26 27 26 23 23 23 21 21 20 20 21 22 22
9 8 7 7 6 6 7 9 14 16 18 20 20 21 18 18 17 16 15 15 16 16 17 17 15 15 15 15 15 17 19 21 21 21 20 20 21 22 23 23 26 28 28 27 27 27 26 27 27 28 27 27 26 25 24 23 23 22 20 18 16 15 18
8 9 7 6 5 5 7 8 10 15 17 18 19 18 16 16 16 15 14 15 15 17 16 15 15 14 14 14 14 16 19 21 21 19 18 18 19 21 22 23 25 27 28 29 29 29 28 29 29 30 30 30 29 26 24 21 18 16 18 16 12 14 16
8 8 8 6 5 6 6 6 8 13 16 17 18 17 15 15 15 14 14 15 15 15 15 15 15 15 13 13 13 17 20 21 20 17 17 17 17 18 19 21 23 23 24 27 28 28 28 28 28 29 29 29 29 28 25 19 15 17 19 14 15 13 16
7 7 8 7 5 6 5 5 7 11 14 16 16 16 14 14 14 13 13 14 13 14 14 14 14 14 13 13 15 18 19 20 19 17 17 17 16 16 16 17 16 17 20 21 22 22 23 23 25 25 25 26 27 27 25 22 20 20 18 14 15 16 16
6 5 6 7 6 5 5 4 5 7 13 14 15 16 14 14 12 11 12 12 11 12 12 12 12 14 13 14 16 17 19 20 21 16 14 14 14 13 12 15 15 16 16 17 20 21 22 22 23 23 24 24 24 25 25 22 22 21 19 16 16 16 16
4 4 5 7 6 6 5 5 4 5 10 12 13 15 14 12 12 12 12 10 10 10 9 9 10 10 11 12 14 16 17 18 17 16 13 13 12 12 13 14 13 14 16 15 17 19 21 21 22 22 23 23 23 24 25 23 22 21 21 19 17 16 15
3 5 5 7 7 6 5 6 5 4 7 10 12 13 14 12 12 12 8 8 8 7 7 7 8 8 9 10 13 14 15 15 15 14 11 11 14 14 13 10 12 14 15 16 16 17 19 20 21 21 21 21 22 23 23 23 21 21 21 22 21 19 17
2 3 5 5 8 7 6 5 6 5 4 7 10 12 13 14 11 10 8 6 4 4 5 5 5 6 8 9 12 12 12 12 12 10 9 12 12 11 9 10 11 12 13 13 14 15 14 16 18 19 19 20 20 22 22 22 21 21 20 21 21 22 21
5 5 4 4 5 6 6 6 6 5 5 5 7 11 12 13 10 9 5 5 4 3 3 2 3 5 8 9 9 9 9 9 7 6 8 8 6 5 7 7 8 9 10 11 11 12 13 14 16 17 18 19 21 21 21 22 21 19 20 20 20 20 20
6 5 5 4 3 4 4 5 5 4 5 5 5 9 10 10 7 5 3 2 3 2 1 1 5 6 5 5 5 5 4 3 3 3 3 2 3 4 5 5 5 5 6 6 8 10 12 13 14 16 17 19 19 19 20 19 20 19 19 20 19 19 19
4 4 4 2 2 2 2 3 3 3 4 5 6 7 7 8 3 2 1 1 1 -1 -1 -1 0 -1 -1 -1 -0 -0 -1 -1 -0 0 1 0 1 1 2 2 2 2 2 2 4 5 7 9 12 14 16 16 17 17 16 17 16 16 15 16 16 15 16
3 3 2 1 1 1 1 2 2 2 3 4 7 5 4 6 1 -0 -0 -1 -1 -3 -3 -3 -3 -3 -3 -3 -2 -2 -1 -2 -2 -2 -2 -2 -1 -0 -0 0 -0 -1 -0 0 1 1 3 5 7 10 11 12 15 15 15 17 15 14 14 15 15 14 13
2 2 0 -0 -0 -0 0 1 0 -0 0 3 5 3 4 3 -2 -4 -3 -4 -5 -5 -5 -5 -4 -4 -4 -4 -4 -4 -4 -4 -4 -4 -4 -5 -3 -2 -2 -2 -1 -1 -0 -1 -0 0 3 3 5 5 7 10 11 13 14 15 14 13 13 13 12 11 10
3 2 0 -0 -1 -2 -2 -2 -3 -2 2 5 5 2 1 1 -4 -6 -5 -6 -6 -7 -6 -6 -6 -7 -8 -8 -8 -8 -8 -7 -7 -7 -6 -7 -6 -5 -4 -4 -4 -5 -4 -4 -3 -2 -1 -1 2 3 5 6 7 9 12 15 14 14 12 12 12 9 10
3 2 1 -0 -0 0 -3 -4 -3 1 6 6 5 3 2 2 0 -5 -7 -7 -7 -8 -9 -9 -10 -10 -11 -11 -10 -11 -11 -10 -10 -10 -9 -8 -7 -7 -7 -7 -7 -7 -7 -5 -4 -3 -3 -2 -1 -1 1 2 3 5 7 10 12 12 13 10 9 8 9
4 3 1 -0 -1 -0 -1 -2 -2 -0 5 4 3 1 1 0 -2 -5 -8 -8 -9 -10 -12 -12 -13 -13 -12 -12 -12 -13 -12 -12 -12 -11 -11 -10 -9 -9 -9 -9 -9 -9 -8 -7 -6 -6 -5 -4 -4 -4 -2 -2 -0 1 3 5 6 9 11 10 9 8 8
1 1 1 -0 -0 -1 -2 -3 -2 -1 2 2 1 -1 -3 -1 -3 -5 -8 -10 -10 -13 -13 -13 -14 -14 -15 -14 -15 -14 -13 -13 -13 -13 -12 -12 -12 -11 -10 -11 -11 -10 -9 -8 -8 -8 -8 -7 -6 -6 -5 -4 -3 -2 -0 2 3 5 6 8 9 8 8
-3 -3 -2 -1 -1 -0 -2 -4 -4 -3 -1 -1 -2 -3 -8 -6 -7 -10 -11 -11 -13 -15 -15 -15 -15 -15 -16 -16 -16 -15 -15 -14 -14 -14 -13 -13 -13 -13 -12 -11 -11 -10 -9 -9 -9 -9 -9 -8 -8 -8 -7 -7 -6 -5 -5 -3 -1 2 3 5 5 6 6
-7 -8 -7 -6 -6 -5 -6 -6 -5 -5 -5 -4 -6 -6 -8 -9 -9 -9 -11 -13 -15 -16 -16 -16 -17 -16 -17 -17 -16 -16 -16 -16 -16 -15 -14 -14 -13 -13 -12 -12 -11 -10 -10 -11 -10 -10 -10 -10 -10 -9 -10 -9 -8 -7 -6 -6 -4 -2 -0 1 3 4 6
-10 -10 -10 -10 -10 -9 -9 -9 -9 -8 -7 -8 -10 -11 -10 -10 -13 -15 -14 -14 -15 -16 -16 -17 -17 -18 -17 -17 -18 -17 -17 -17 -18 -16 -16 -16 -15 -14 -13 -13 -11 -11 -11 -12 -11 -11 -11 -11 -11 -11 -10 -10 -10 -10 -10 -8 -7 -5 -4 -3 -1 2 3
-12 -13 -12 -11 -11 -11 -10 -10 -10 -9 -9 -8 -9 -11 -13 -16 -16 -16 -16 -16 -16 -16 -16 -16 -16 -17 -18 -17 -18 -17 -18 -18 -18 -17 -17 -17 -17 -16 -15 -14 -13 -12 -13 -13 -12 -12 -12 -13 -12 -11 -12 -11 -11 -11 -10 -9 -9 -8 -7 -6 -4 -1 1
MSLP
1020.08 1019.80 1019.56 1019.24 1018.92 1018.64 1018.44 1018.20 1018.08 1017.96 1017.88 1017.76 1017.68 1017.60 1017.56 1017.56 1017.56 1017.52 1017.44 1017.44 1017.40 1017.44 1017.56 1017.64 1017.64 1017.64 1017.72 1017.88 1017.96 1017.84 1017.88 1017.96 1018.04 1018.24 1018.24 1018.28 1018.36 1018.40 1018.36 1018.52 1018.56 1018.28 1017.48 1017.04 1017.40 1017.32 1017.08 1017.44 1017.80 1018.04 1018.20 1018.56 1018.84 1019.20 1019.48 1019.80 1019.88 1019.96 1020.16 1020.28 1020.40 1020.60 1020.84
1020.48 1020.24 1020.00 1019.68 1019.32 1019.04 1018.80 1018.60 1018.36 1018.12 1017.88 1017.72 1017.60 1017.48 1017.44 1017.40 1017.40 1017.36 1017.24 1017.20 1017.12 1017.08 1017.16 1017.24 1017.24 1017.20 1017.36 1017.52 1017.64 1017.56 1017.60 1017.68 1017.80 1017.88 1017.88 1017.88 1017.96 1017.92 1017.96 1018.04 1018.28 1018.04 1017.80 1017.20 1017.20 1017.20 1017.24 1017.28 1017.48 1017.52 1017.72 1018.12 1018.36 1018.76 1019.08 1019.40 1019.52 1019.60 1019.68 1019.72 1019.88 1020.04 1020.08
1020.76 1020.52 1020.28 1020.00 1019.68 1019.44 1019.20 1018.92 1018.68 1018.40 1018.12 1017.88 1017.64 1017.52 1017.40 1017.28 1017.28 1017.20 1017.08 1017.00 1016.88 1016.84 1016.92 1016.92 1016.88 1016.84 1017.04 1017.20 1017.32 1017.28 1017.28 1017.40 1017.48 1017.52 1017.52 1017.48 1017.52 1017.60 1017.56 1017.64 1017.76 1017.84 1017.68 1017.36 1016.96 1017.12 1017.12 1017.12 1017.28 1017.16 1017.20 1017.56 1017.88 1018.16 1018.48 1018.84 1019.04 1019.12 1019.24 1019.32 1019.40 1019.48 1019.52
1020.96 1020.68 1020.44 1020.08 1019.80 1019.56 1019.28 1019.12 1018.92 1018.76 1018.56 1018.32 1018.08 1017.76 1017.48 1017.32 1017.20 1017.08 1016.92 1016.84 1016.72 1016.68 1016.68 1016.64 1016.60 1016.52 1016.68 1016.92 1017.04 1017.04 1017.04 1017.04 1017.16 1017.20 1017.24 1017.28 1017.24 1017.28 1017.24 1017.28 1017.40 1017.32 1017.28 1017.16 1017.12 1016.72 1016.76 1016.68 1016.92 1016.88 1016.80 1017.08 1017.48 1017.76 1018.12 1018.28 1018.56 1018.80 1018.88 1018.92 1019.12 1019.16 1019.12
1020.92 1020.72 1020.40 1020.12 1019.88 1019.68 1019.48 1019.32 1019.16 1019.08 1018.92 1018.72 1018.48 1018.24 1017.92 1017.52 1017.20 1016.96 1016.80 1016.68 1016.60 1016.56 1016.56 1016.48 1016.32 1016.28 1016.44 1016.60 1016.68 1016.64 1016.60 1016.68 1016.84 1017.00 1017.04 1017.00 1016.92 1016.92 1016.92 1017.04 1017.12 1017.04 1017.04 1017.08 1016.92 1016.60 1016.52 1016.60 1016.48 1016.60 1016.64 1016.68 1017.12 1017.52 1017.84 1018.08 1018.20 1018.32 1018.48 1018.72 1018.76 1018.92 1018.88
1021.16 1020.92 1020.60 1020.40 1020.16 1019.96 1019.84 1019.64 1019.48 1019.28 1019.04 1018.72 1018.40 1018.08 1017.80 1017.56 1017.28 1017.00 1016.76 1016.60 1016.44 1016.36 1016.24 1016.08 1016.00 1015.96 1016.08 1016.20 1016.28 1016.20 1016.16 1016.32 1016.48 1016.72 1016.80 1016.80 1016.76 1016.72 1016.76 1016.84 1016.92 1016.92 1016.92 1016.92 1016.84 1016.76 1016.76 1016.64 1016.52 1016.52 1016.52 1016.40 1016.64 1016.96 1017.36 1017.76 1017.96 1018.12 1018.20 1018.44 1018.64 1018.68 1018.72
1021.60 1021.32 1021.04 1020.84 1020.56 1020.40 1020.12 1019.88 1019.56 1019.24 1018.92 1018.64 1018.32 1018.08 1017.84 1017.56 1017.24 1016.96 1016.80 1016.64 1016.48 1016.28 1016.08 1015.96 1015.84 1015.76 1015.80 1015.92 1015.92 1015.88 1015.88 1015.92 1016.08 1016.20 1016.28 1016.32 1016.36 1016.48 1016.60 1016.68 1016.72 1016.80 1016.88 1016.88 1016.88 1016.80 1016.72 1016.68 1016.44 1016.52 1016.40 1016.28 1016.48 1016.56 1016.60 1017.00 1017.48 1017.84 1017.96 1018.16 1018.24 1018.40 1018.52
1021.84 1021.60 1021.32 1021.12 1020.88 1020.60 1020.32 1020.08 1019.76 1019.40 1019.12 1018.88 1018.64 1018.24 1017.88 1017.56 1017.28 1017.08 1016.88 1016.68 1016.48 1016.28 1016.12 1016.00 1015.88 1015.72 1015.64 1015.64 1015.68 1015.64 1015.52 1015.60 1015.68 1015.72 1015.80 1015.80 1015.92 1016.04 1016.20 1016.28 1016.32 1016.52 1016.68 1016.72 1016.72 1016.60 1016.48 1016.32 1016.32 1016.20 1016.12 1016.20 1016.40 1016.64 1016.40 1016.24 1016.40 1016.88 1017.40 1017.68 1017.88 1018.00 1018.20
1021.92 1021.72 1021.56 1021.28 1021.08 1020.84 1020.64 1020.44 1020.16 1019.84 1019.68 1019.36 1018.72 1018.24 1017.96 1017.68 1017.40 1017.20 1016.96 1016.72 1016.48 1016.24 1016.12 1016.00 1015.88 1015.76 1015.64 1015.56 1015.48 1015.40 1015.32 1015.24 1015.28 1015.36 1015.32 1015.24 1015.40 1015.64 1015.76 1015.84 1015.92 1016.04 1016.24 1016.28 1016.32 1016.28 1016.12 1016.08 1015.96 1015.68 1015.80 1015.80 1015.80 1015.80 1015.64 1015.88 1016.24 1016.40 1016.40 1016.96 1017.68 1017.96 1018.04
1022.28 1022.12 1021.92 1021.76 1021.52 1021.32 1021.08 1020.84 1020.56 1020.32 1019.84 1019.12 1018.56 1018.20 1017.88 1017.60 1017.36 1017.20 1017.04 1016.84 1016.68 1016.48 1016.32 1016.12 1015.96 1015.84 1015.72 1015.60 1015.52 1015.40 1015.28 1015.16 1015.08 1015.04 1015.04 1014.96 1015.00 1015.16 1015.32 1015.40 1015.56 1015.68 1015.72 1015.80 1015.84 1015.72 1015.68 1015.64 1015.44 1015.16 1015.08 1015.12 1014.88 1015.20 1015.60 1015.88 1016.04 1016.36 1016.44 1017.12 1017.64 1017.88 1017.88
1022.64 1022.40 1022.20 1022.08 1021.96 1021.80 1021.40 1021.08 1020.80 1020.36 1019.64 1019.00 1018.56 1018.08 1017.96 1018.00 1017.96 1017.76 1017.48 1017.32 1017.32 1017.16 1016.84 1016.64 1016.48 1016.28 1016.04 1015.84 1015.64 1015.44 1015.28 1015.12 1014.96 1014.88 1014.80 1014.72 1014.68 1014.68 1014.76 1014.96 1015.04 1015.04 1015.12 1015.16 1015.12 1015.04 1015.08 1015.00 1014.88 1014.44 1014.48 1014.52 1014.56 1014.68 1015.08 1015.16 1015.44 1015.84 1016.36 1016.80 1017.52 1017.72 1017.48
1022.80 1022.68 1022.44 1022.28 1022.16 1021.96 1021.56 1021.20 1020.88 1020.36 1019.68 1019.08 1018.64 1018.20 1018.32 1018.12 1018.16 1017.96 1017.72 1017.68 1017.72 1017.52 1017.32 1017.12 1016.88 1016.76 1016.56 1016.36 1016.16 1015.92 1015.60 1015.32 1015.08 1014.88 1014.68 1014.52 1014.36 1014.28 1014.24 1014.24 1014.28 1014.36 1014.44 1014.44 1014.52 1014.44 1014.24 1014.32 1014.04 1013.92 1013.92 1014.04 1014.24 1014.28 1014.68 1014.96 1015.16 1015.40 1015.84 1016.08 1016.52 1016.52 1016.48
1022.92 1022.76 1022.64 1022.52 1022.32 1022.04 1021.68 1021.44 1021.04 1020.40 1019.72 1019.20 1018.72 1018.28 1018.40 1018.32 1018.40 1018.16 1018.08 1018.12 1018.04 1017.92 1017.72 1017.44 1017.16 1016.88 1016.68 1016.48 1016.32 1016.08 1015.88 1015.72 1015.40 1015.08 1014.80 1014.52 1014.24 1014.00 1013.80 1013.68 1013.56 1013.56 1013.56 1013.60 1013.60 1013.64 1013.56 1013.36 1013.40 1013.52 1013.36 1013.40 1013.64 1013.96 1014.56 1015.00 1015.08 1015.16 1015.32 1015.48 1015.80 1015.80 1015.76
1022.92 1022.80 1022.76 1022.64 1022.44 1022.12 1021.88 1021.64 1021.12 1020.40 1019.80 1019.28 1018.80 1018.36 1018.40 1018.60 1018.52 1018.36 1018.36 1018.28 1018.16 1018.04 1017.84 1017.68 1017.44 1017.12 1016.84 1016.60 1016.52 1016.24 1016.04 1015.80 1015.44 1015.04 1014.72 1014.44 1014.16 1013.88 1013.56 1013.36 1013.16 1013.04 1012.96 1012.96 1012.88 1012.84 1012.72 1012.64 1012.80 1012.76 1012.76 1012.84 1013.36 1013.80 1014.00 1014.36 1014.56 1014.80 1015.28 1015.48 1015.20 1015.12 1015.36
1022.88 1022.84 1022.84 1022.76 1022.56 1022.28 1022.00 1021.68 1021.00 1020.44 1019.84 1019.32 1018.88 1018.44 1018.40 1018.60 1018.52 1018.36 1018.36 1018.32 1018.24 1018.16 1017.96 1017.80 1017.68 1017.56 1017.32 1017.16 1016.96 1016.64 1016.32 1015.92 1015.44 1014.96 1014.60 1014.28 1014.00 1013.76 1013.52 1013.24 1013.04 1012.76 1012.60 1012.40 1012.32 1012.28 1012.12 1012.08 1012.24 1012.32 1012.40 1012.60 1012.92 1013.16 1013.24 1013.28 1013.56 1013.92 1014.32 1014.64 1014.80 1015.20 1015.48
1022.88 1022.84 1022.84 1022.80 1022.68 1022.44 1022.08 1021.68 1021.16 1020.60 1019.96 1019.48 1019.04 1018.72 1018.64 1018.56 1018.52 1018.48 1018.48 1018.40 1018.20 1018.12 1017.84 1017.92 1017.96 1017.84 1017.68 1017.56 1017.36 1017.04 1016.56 1016.00 1015.36 1014.96 1014.60 1014.16 1013.76 1013.48 1013.24 1012.96 1012.72 1012.48 1012.32 1012.16 1012.04 1011.84 1011.76 1011.68 1011.64 1011.76 1012.00 1012.16 1012.32 1012.64 1012.96 1013.28 1013.52 1013.96 1014.48 1015.00 1015.32 1015.24 1015.36
1022.88 1022.76 1022.80 1022.84 1022.72 1022.52 1022.12 1021.84 1021.48 1020.76 1020.16 1019.68 1019.28 1019.04 1018.96 1018.76 1018.56 1018.52 1018.52 1018.32 1018.20 1018.00 1018.00 1018.16 1018.16 1018.08 1017.92 1017.76 1017.52 1017.16 1016.56 1015.96 1015.48 1015.12 1014.80 1014.32 1013.84 1013.32 1012.92 1012.56 1012.36 1012.20 1012.04 1011.80 1011.52 1011.36 1011.24 1011.12 1011.00 1011.00 1011.16 1011.36 1011.60 1011.88 1012.36 1012.96 1013.56 1013.84 1013.88 1014.40 1015.04 1014.92 1014.84
1022.88 1022.76 1022.64 1022.84 1022.84 1022.60 1022.40 1022.08 1021.72 1021.08 1020.40 1019.92 1019.52 1019.24 1019.12 1018.88 1018.68 1018.64 1018.48 1018.24 1018.16 1018.20 1018.16 1018.16 1018.16 1018.08 1018.00 1017.80 1017.52 1016.92 1016.32 1015.84 1015.48 1015.16 1014.76 1014.32 1013.80 1013.40 1012.96 1012.36 1012.04 1011.88 1011.68 1011.48 1011.36 1011.20 1011.00 1010.84 1010.80 1010.72 1010.60 1010.56 1010.68 1011.08 1011.48 1012.12 1012.60 1012.68 1013.12 1013.88 1013.84 1014.04 1013.88
1022.88 1022.88 1022.60 1022.68 1022.80 1022.60 1022.48 1022.28 1021.84 1021.36 1020.68 1020.20 1019.80 1019.44 1019.24 1019.08 1018.92 1018.80 1018.56 1018.28 1018.40 1018.36 1018.20 1018.16 1018.12 1018.08 1018.04 1017.84 1017.36 1016.76 1016.20 1015.68 1015.24 1014.92 1014.44 1014.20 1013.80 1013.36 1013.20 1013.08 1013.16 1012.64 1011.88 1011.44 1011.24 1011.08 1011.00 1010.84 1010.68 1010.56 1010.52 1010.44 1010.36 1010.48 1010.76 1010.92 1011.32 1011.88 1012.28 1013.04 1013.00 1013.16 1013.60
1023.00 1023.04 1022.72 1022.60 1022.60 1022.56 1022.44 1022.32 1022.00 1021.72 1021.00 1020.56 1020.12 1019.72 1019.44 1019.32 1019.12 1018.92 1018.60 1018.64 1018.72 1018.52 1018.40 1018.36 1018.28 1018.12 1018.08 1017.80 1017.28 1016.68 1016.04 1015.48 1015.16 1015.24 1015.24 1014.88 1014.40 1014.08 1014.00 1013.64 1013.48 1013.12 1012.80 1012.24 1011.48 1010.96 1010.76 1010.64 1010.48 1010.40 1010.28 1010.24 1010.24 1010.12 1010.24 1010.48 1010.60 1011.00 1011.36 1011.92 1012.28 1012.32 1012.52
1023.28 1023.00 1022.72 1022.44 1022.52 1022.44 1022.44 1022.32 1022.20 1021.96 1021.44 1020.92 1020.44 1020.00 1019.64 1019.44 1019.28 1018.92 1018.64 1018.96 1018.96 1018.84 1018.80 1018.80 1018.68 1018.52 1018.32 1018.08 1017.48 1016.84 1016.32 1015.96 1015.76 1015.64 1015.52 1015.32 1015.04 1014.76 1014.44 1014.12 1013.80 1013.24 1012.92 1012.52 1011.88 1011.20 1010.72 1010.48 1010.28 1010.20 1010.12 1010.04 1009.96 1009.88 1009.84 1010.04 1010.24 1010.32 1010.56 1011.04 1011.52 1011.92 1012.24
1023.20 1022.88 1022.64 1022.40 1022.32 1022.36 1022.44 1022.28 1022.28 1022.12 1021.72 1021.16 1020.64 1020.20 1019.76 1019.48 1019.08 1019.00 1019.36 1019.32 1019.36 1019.40 1019.40 1019.32 1019.12 1018.92 1018.64 1018.40 1017.80 1017.28 1016.88 1016.56 1016.32 1016.12 1016.00 1015.68 1015.28 1015.00 1014.76 1014.56 1014.04 1013.48 1012.96 1012.48 1012.04 1011.56 1010.88 1010.32 1010.08 1009.92 1009.84 1009.76 1009.72 1009.64 1009.60 1009.72 1010.04 1010.12 1010.16 1010.32 1010.52 1010.88 1011.44
1023.20 1022.96 1022.60 1022.48 1022.16 1022.24 1022.36 1022.36 1022.24 1022.20 1021.88 1021.40 1020.92 1020.40 1019.88 1019.32 1019.48 1019.68 1019.72 1019.92 1020.04 1020.04 1019.96 1019.80 1019.72 1019.36 1019.04 1018.52 1017.96 1017.64 1017.32 1017.00 1016.84 1016.72 1016.44 1015.96 1015.68 1015.48 1015.20 1014.68 1014.08 1013.60 1013.16 1012.68 1012.24 1011.84 1011.44 1010.84 1010.28 1009.92 1009.68 1009.56 1009.52 1009.44 1009.44 1009.56 1009.72 1009.80 1009.96 1010.08 1010.20 1010.36 1010.48
1022.60 1022.40 1022.40 1022.40 1022.28 1022.24 1022.28 1022.20 1022.20 1022.24 1021.96 1021.64 1021.20 1020.56 1020.00 1019.72 1019.96 1020.08 1020.52 1020.48 1020.56 1020.60 1020.60 1020.40 1020.12 1019.52 1019.00 1018.60 1018.32 1018.00 1017.68 1017.44 1017.44 1017.16 1016.76 1016.56 1016.36 1015.96 1015.40 1015.00 1014.48 1014.04 1013.56 1013.04 1012.52 1012.04 1011.56 1011.12 1010.68 1010.28 1009.88 1009.64 1009.44 1009.32 1009.32 1009.32 1009.40 1009.56 1009.72 1009.84 1009.88 1010.08 1010.36
1022.44 1022.36 1022.28 1022.44 1022.52 1022.48 1022.44 1022.36 1022.36 1022.32 1021.96 1021.72 1021.36 1020.72 1020.40 1020.28 1020.68 1020.84 1021.04 1021.00 1020.96 1021.08 1021.00 1020.80 1020.12 1019.76 1019.48 1019.24 1018.88 1018.56 1018.28 1018.04 1017.88 1017.64 1017.40 1017.12 1016.72 1016.28 1015.76 1015.44 1015.08 1014.68 1014.12 1013.64 1013.00 1012.32 1011.80 1011.36 1011.00 1010.64 1010.28 1010.00 1009.84 1009.68 1009.56 1009.52 1009.36 1009.40 1009.48 1009.52 1009.68 1009.84 1010.00
1022.72 1022.48 1022.44 1022.68 1022.68 1022.76 1022.72 1022.52 1022.48 1022.36 1022.04 1021.68 1021.12 1020.88 1021.00 1020.68 1021.32 1021.36 1021.44 1021.48 1021.32 1021.40 1021.28 1020.96 1020.60 1020.36 1020.04 1019.72 1019.40 1019.00 1018.72 1018.52 1018.24 1018.00 1017.68 1017.44 1017.04 1016.72 1016.40 1016.08 1015.76 1015.40 1015.00 1014.52 1013.96 1013.52 1012.92 1012.24 1011.60 1011.16 1010.76 1010.44 1010.12 1009.92 1009.80 1009.64 1009.64 1009.60 1009.68 1009.72 1009.84 1010.04 1010.16
1022.88 1022.60 1022.68 1022.92 1022.92 1022.92 1022.80 1022.48 1022.60 1022.52 1022.16 1021.72 1020.96 1021.20 1021.24 1020.92 1021.48 1021.76 1021.68 1021.60 1021.52 1021.60 1021.40 1021.12 1020.88 1020.64 1020.36 1020.12 1019.76 1019.40 1019.12 1018.92 1018.56 1018.20 1017.96 1017.76 1017.44 1017.24 1016.96 1016.68 1016.44 1016.12 1015.68 1015.24 1014.92 1014.56 1014.08 1013.48 1012.88 1012.16 1011.56 1011.00 1010.28 1009.96 1009.80 1009.68 1009.64 1009.64 1009.72 1009.64 1009.72 1009.84 1009.96
1022.96 1022.84 1023.08 1023.12 1023.12 1023.04 1022.80 1022.60 1022.80 1022.76 1022.48 1021.76 1021.24 1021.60 1021.40 1021.32 1022.00 1022.24 1022.12 1022.08 1022.08 1021.96 1021.72 1021.44 1021.04 1020.80 1020.48 1020.24 1019.92 1019.56 1019.36 1019.20 1019.00 1018.76 1018.56 1018.40 1018.04 1017.72 1017.48 1017.24 1016.92 1016.56 1016.12 1015.92 1015.60 1015.16 1014.44 1013.92 1013.40 1012.88 1012.16 1011.48 1010.92 1010.24 1009.80 1009.68 1009.68 1009.60 1009.64 1009.64 1009.84 1009.80 1009.80
1022.84 1023.12 1023.40 1023.48 1023.36 1023.28 1022.96 1023.04 1023.16 1023.04 1022.64 1021.68 1021.64 1021.92 1021.80 1021.68 1022.28 1022.72 1022.56 1022.60 1022.52 1022.16 1021.76 1021.48 1021.20 1021.00 1020.80 1020.52 1020.28 1020.00 1019.80 1019.64 1019.44 1019.20 1019.08 1018.88 1018.56 1018.12 1017.80 1017.52 1017.28 1016.92 1016.68 1016.48 1016.04 1015.44 1014.84 1014.52 1013.88 1013.40 1012.76 1012.24 1011.64 1011.04 1010.24 1009.64 1009.56 1009.44 1009.44 1009.48 1009.64 1009.76 1009.52
1023.20 1023.44 1023.68 1023.60 1023.60 1023.52 1023.68 1023.72 1023.68 1023.32 1022.28 1021.80 1022.00 1022.24 1022.12 1022.08 1022.36 1023.00 1023.08 1022.92 1022.64 1022.44 1022.04 1021.72 1021.60 1021.40 1021.32 1021.08 1020.80 1020.56 1020.32 1020.12 1019.92 1019.68 1019.40 1019.12 1019.00 1018.64 1018.40 1018.16 1017.96 1017.68 1017.48 1017.04 1016.44 1015.92 1015.48 1015.04 1014.56 1014.12 1013.48 1012.96 1012.40 1011.68 1011.20 1010.60 1009.88 1009.40 1009.24 1009.36 1009.40 1009.56 1009.44
1023.64 1023.68 1023.92 1023.92 1023.80 1023.72 1024.00 1024.12 1023.92 1023.40 1022.48 1022.36 1022.44 1022.72 1022.56 1022.44 1022.72 1023.00 1023.28 1023.16 1022.76 1022.44 1022.36 1022.16 1021.96 1021.88 1021.84 1021.68 1021.44 1021.24 1021.00 1020.76 1020.52 1020.24 1019.96 1019.60 1019.40 1019.16 1018.92 1018.76 1018.52 1018.28 1017.96 1017.36 1016.88 1016.56 1016.20 1015.80 1015.28 1014.80 1014.36 1013.92 1013.36 1012.80 1012.20 1011.52 1010.92 1010.08 1009.28 1009.12 1009.08 1009.12 1009.20
1024.28 1024.16 1024.04 1024.04 1023.96 1023.88 1023.96 1024.12 1024.00 1023.60 1022.96 1022.84 1022.92 1023.16 1023.36 1022.96 1023.12 1023.32 1023.56 1023.48 1023.20 1022.76 1022.64 1022.64 1022.48 1022.36 1022.28 1022.20 1021.96 1021.76 1021.64 1021.32 1021.12 1020.80 1020.48 1020.08 1019.80 1019.52 1019.36 1019.20 1019.00 1018.80 1018.44 1017.80 1017.48 1017.08 1016.76 1016.24 1015.92 1015.56 1015.20 1014.76 1014.20 1013.64 1012.96 1012.24 1011.52 1010.96 1010.20 1009.44 1009.04 1008.96 1008.88
1024.92 1024.84 1024.60 1024.40 1024.28 1024.12 1024.16 1024.28 1024.16 1023.84 1023.48 1023.36 1023.52 1023.56 1023.96 1023.72 1023.80 1023.96 1023.96 1023.68 1023.28 1023.08 1022.96 1022.96 1022.88 1022.76 1022.76 1022.64 1022.44 1022.28 1022.08 1021.84 1021.64 1021.36 1021.00 1020.64 1020.32 1019.96 1019.68 1019.60 1019.48 1019.12 1018.60 1018.24 1018.00 1017.64 1017.20 1016.80 1016.60 1016.24 1015.84 1015.36 1014.88 1014.36 1013.80 1013.16 1012.52 1011.68 1011.00 1010.32 1009.64 1009.16 1009.00
1025.44 1025.40 1025.24 1025.12 1025.00 1024.88 1024.84 1024.76 1024.52 1024.32 1024.20 1024.08 1024.28 1024.20 1024.16 1024.08 1023.96 1024.04 1024.08 1023.96 1023.68 1023.52 1023.36 1023.32 1023.24 1023.12 1023.16 1023.08 1022.96 1022.72 1022.56 1022.28 1022.08 1021.80 1021.44 1021.08 1020.76 1020.44 1020.08 1019.84 1019.52 1019.04 1018.72 1018.56 1018.24 1017.92 1017.60 1017.32 1017.08 1016.72 1016.28 1015.76 1015.36 1014.96 1014.44 1013.88 1013.20 1012.48 1011.68 1010.84 1010.12 1009.56 1009.04
1025.28 1025.60 1025.64 1025.44 1025.36 1025.32 1025.28 1025.20 1025.00 1024.76 1024.56 1024.52 1024.76 1024.76 1024.52 1024.32 1024.08 1023.88 1023.84 1023.88 1023.96 1023.80 1023.68 1023.64 1023.48 1023.44 1023.36 1023.36 1023.16 1023.00 1022.88 1022.64 1022.48 1022.12 1021.84 1021.52 1021.16 1020.76 1020.40 1020.04 1019.56 1019.16 1019.00 1018.88 1018.52 1018.20 1017.88 1017.68 1017.44 1017.00 1016.64 1016.20 1015.76 1015.32 1014.88 1014.24 1013.68 1013.20 1012.64 1011.92 1011.08 1010.24 1009.56
1025.36 1025.72 1025.80 1025.72 1025.64 1025.60 1025.48 1025.40 1025.24 1024.96 1024.72 1024.56 1024.68 1024.80 1024.84 1024.24 1024.04 1024.00 1023.96 1023.92 1023.92 1023.96 1023.92 1023.76 1023.72 1023.76 1023.60 1023.52 1023.40 1023.24 1023.08 1022.92 1022.64 1022.40 1022.20 1021.96 1021.60 1021.12 1020.76 1020.28 1019.72 1019.40 1019.24 1019.12 1018.80 1018.44 1018.16 1017.96 1017.60 1017.24 1016.92 1016.48 1016.08 1015.64 1015.12 1014.64 1014.24 1013.76 1013.28 1012.80 1012.08 1011.20 1010.36
Wind_Speed
9 8 8 8 8 7 7 8 8 7 8 9 10 9 10 11 12 13 12 12 13 13 12 13 14 14 13 12 11 11 11 11 13 12 12 12 12 12 12 13 13 15 17 13 10 12 11 9 10 10 11 11 10 9 10 13 13 13 13 13 13 13 24
8 8 9 8 8 7 7 7 7 7 8 8 9 10 9 10 11 12 13 12 13 13 11 11 13 14 13 12 12 12 11 11 10 11 12 12 12 12 12 13 12 14 14 16 10 11 11 11 11 9 11 11 11 10 10 12 12 11 13 13 12 13 14
8 8 8 8 7 7 7 7 7 7 7 7 8 9 10 10 11 12 13 13 13 13 12 13 12 13 11 9 10 11 11 11 11 11 12 13 12 13 14 13 14 12 13 15 13 11 12 11 11 13 12 12 10 10 11 12 13 12 11 11 13 13 12
8 8 8 7 7 7 7 7 7 7 7 8 8 9 10 11 11 11 12 13 13 13 12 12 12 12 12 9 11 11 10 11 11 11 11 12 12 13 14 14 13 15 13 12 13 13 14 12 10 11 13 10 9 11 10 11 10 11 12 11 11 13 12
8 8 8 8 8 8 8 8 8 7 7 6 6 7 8 8 9 10 12 12 12 11 11 12 13 12 10 10 10 11 12 10 11 10 10 10 11 12 12 11 11 13 13 12 14 12 11 11 12 10 11 11 10 9 9 9 11 11 11 12 11 11 11
9 8 9 9 9 9 8 8 8 7 7 7 7 7 7 7 7 8 9 10 11 12 12 12 13 11 11 10 11 11 11 9 12 12 12 13 11 9 9 10 10 11 11 12 11 10 11 11 12 11 10 11 11 11 10 9 9 10 9 9 9 10 9
8 8 8 8 8 8 9 9 8 8 8 8 8 8 8 8 8 9 8 8 8 9 10 11 13 13 10 10 11 12 12 11 12 11 13 14 13 13 11 9 8 8 8 8 8 10 12 12 12 12 12 10 12 13 12 11 10 9 8 8 10 10 8
8 8 7 8 7 8 8 8 8 8 8 8 9 9 9 9 9 9 9 9 9 9 9 9 9 10 10 9 10 11 11 11 10 10 11 9 12 12 12 11 9 8 9 10 10 13 13 12 12 11 12 10 10 11 12 12 12 11 10 10 10 10 9
9 9 9 8 8 8 8 7 6 6 7 9 10 8 8 9 9 9 9 9 9 9 8 8 8 9 9 10 13 15 14 13 12 10 9 10 11 11 12 11 8 8 8 8 10 12 12 12 12 13 12 11 13 14 14 12 10 10 9 7 8 7 7
7 7 7 7 8 7 6 6 5 9 17 13 9 8 7 8 7 7 7 7 7 7 8 8 8 9 13 14 15 16 18 19 19 18 13 9 10 10 10 11 9 8 9 9 11 12 12 14 17 15 18 14 14 12 10 11 11 11 8 5 5 4 6
7 6 6 6 6 7 6 6 6 15 16 15 15 10 6 6 6 6 6 6 7 7 7 7 9 9 10 12 12 11 14 16 18 20 22 22 19 14 11 9 10 10 9 12 14 15 14 16 17 17 16 17 12 12 13 13 11 9 8 8 9 10 6
6 6 6 6 6 6 6 6 11 16 16 15 15 13 4 4 5 6 6 6 7 7 7 7 7 7 7 7 10 11 10 12 14 15 17 19 21 23 24 20 13 12 14 15 15 15 16 16 15 18 14 16 11 11 11 11 9 9 10 10 10 9 11
6 6 6 6 7 7 6 7 13 16 17 16 15 16 6 5 5 6 6 6 6 6 6 7 7 8 7 7 12 10 9 10 11 14 16 17 18 19 22 25 29 27 16 10 15 16 14 15 15 15 17 14 10 7 9 7 9 8 9 8 10 11 10
6 6 6 6 6 7 6 7 12 16 16 15 15 16 7 4 5 5 5 6 6 6 7 7 7 8 8 8 9 8 10 10 10 10 10 10 10 10 13 18 23 27 32 26 13 10 12 14 14 16 15 11 8 12 13 10 11 8 8 9 11 11 9
6 5 5 6 6 6 6 6 14 15 16 15 15 16 9 5 5 5 5 6 6 6 6 6 7 8 8 9 9 9 12 12 11 11 10 10 11 10 10 11 11 12 13 16 17 14 12 17 14 11 12 11 9 13 12 11 13 15 14 13 12 10 4
4 5 5 5 6 6 6 7 14 16 15 16 15 16 8 7 7 5 6 6 6 6 4 5 7 8 9 9 9 12 17 17 13 12 12 12 12 11 11 11 12 16 17 14 12 13 13 11 13 13 14 13 11 9 8 6 6 7 7 6 7 10 7
4 4 4 5 5 6 6 6 12 16 16 16 17 13 8 8 6 6 7 7 6 4 5 6 8 8 8 9 9 13 18 18 18 13 13 12 13 11 11 11 11 14 18 20 23 24 26 28 29 28 28 27 24 14 10 7 8 9 10 11 11 12 13
4 3 3 4 5 5 6 6 10 16 16 16 17 14 9 7 6 7 7 7 4 5 6 7 12 11 8 9 10 16 18 18 15 12 13 13 14 15 13 12 9 9 11 18 21 22 23 23 23 26 28 28 27 25 18 11 12 12 11 12 14 15 14
3 4 3 3 3 6 6 6 8 14 16 17 17 13 8 7 6 6 8 5 4 6 7 7 8 11 11 12 14 19 18 19 15 12 12 12 11 11 11 9 12 12 11 9 9 10 11 12 14 12 11 12 23 25 22 16 12 11 12 12 13 15 12
3 4 3 2 3 4 5 6 7 10 17 17 17 16 10 6 7 7 7 3 4 6 7 7 7 9 13 18 19 19 19 17 18 14 10 9 8 10 10 10 10 11 11 12 11 11 11 11 9 9 9 9 10 13 17 14 11 13 11 12 10 13 15
3 3 2 2 2 4 5 6 7 8 15 16 16 17 13 7 7 8 5 3 5 5 6 7 7 7 12 18 20 19 20 19 20 18 10 9 10 11 13 14 9 12 15 11 12 11 11 10 10 9 9 9 9 10 9 12 13 12 11 12 11 11 10
3 3 2 2 3 4 5 6 7 8 12 16 16 16 16 10 9 7 6 6 6 6 6 7 7 8 13 20 20 20 20 20 19 20 10 12 17 19 19 11 9 9 8 9 8 9 9 9 9 9 9 9 9 9 9 7 11 11 10 12 12 12 12
3 2 2 3 3 5 6 7 6 10 10 15 16 16 15 13 9 13 8 7 6 6 7 7 9 10 17 20 20 20 20 19 19 14 11 19 19 19 18 12 7 8 8 8 9 8 8 9 9 9 9 9 8 9 9 7 9 9 9 11 10 11 10
3 4 2 3 4 5 7 7 6 7 11 12 15 15 12 12 15 16 9 7 5 6 7 8 10 13 20 20 20 19 18 17 14 11 16 17 18 17 13 8 8 7 7 8 8 8 8 8 8 8 8 9 9 8 8 9 8 8 10 10 9 12 12
5 5 3 4 5 6 7 7 5 6 9 14 14 12 10 13 16 16 13 7 6 7 7 11 17 17 16 16 16 16 14 11 11 15 15 16 15 13 7 8 7 7 7 7 7 7 8 8 8 8 8 8 7 6 6 6 6 6 9 10 8 8 9
5 5 3 4 5 6 6 6 4 7 7 9 10 6 11 11 14 13 12 10 7 11 13 12 13 12 13 11 11 9 7 7 9 12 14 14 13 7 7 7 7 8 7 7 7 8 8 8 8 8 9 10 8 7 7 6 5 4 5 6 7 8 8
6 4 4 4 5 5 6 5 5 7 7 9 7 6 7 7 7 11 9 8 7 8 7 8 8 8 9 9 12 10 10 9 10 9 9 8 8 8 8 7 7 8 7 7 7 8 8 9 9 10 10 9 9 8 7 7 6 6 6 6 7 8 8
6 3 4 5 5 6 5 4 5 6 8 10 7 6 7 7 7 7 6 7 6 6 7 6 7 7 6 6 6 7 6 7 8 8 8 8 8 8 8 9 10 9 6 7 8 8 8 8 8 8 9 9 9 10 8 7 7 7 7 7 6 6 8
5 4 3 2 4 5 5 4 5 7 12 10 11 10 8 7 7 6 6 7 9 6 5 4 5 6 7 7 8 8 8 8 8 8 8 9 9 8 8 8 8 8 8 9 9 8 8 9 8 8 8 8 9 9 10 9 8 8 8 7 7 8 10
4 4 3 2 3 3 3 4 5 13 16 11 12 13 13 11 12 13 9 9 8 5 4 5 5 7 7 8 8 8 8 8 8 9 9 8 10 9 8 9 8 8 9 9 8 8 8 9 9 9 8 8 9 9 9 10 11 9 9 7 8 9 10
8 8 7 4 2 3 6 6 8 13 12 11 12 14 14 12 11 12 12 11 5 4 5 5 6 6 7 7 7 7 7 8 8 9 8 8 8 8 9 9 8 9 9 9 9 8 8 8 8 8 9 9 9 10 10 10 10 10 9 9 9 10 10
9 8 7 6 5 4 3 6 8 10 11 12 13 14 13 12 13 13 12 9 7 4 5 5 5 6 6 6 6 7 7 7 7 8 8 8 8 8 8 9 9 10 9 8 8 9 9 8 8 8 9 9 9 10 10 9 9 9 9 9 9 9 9
9 9 8 9 9 10 9 8 8 10 11 12 13 13 11 10 11 11 11 8 5 5 4 4 5 5 6 6 6 6 7 7 7 7 7 7 8 8 9 8 9 10 8 8 8 8 8 8 8 8 9 9 9 9 9 10 10 9 9 9 9 9 8
8 8 7 8 9 10 10 11 11 11 10 11 12 12 9 7 5 8 10 9 5 4 4 4 4 4 5 6 6 6 6 6 7 7 7 7 7 7 8 9 9 8 8 8 8 8 8 8 8 9 8 8 8 8 8 9 9 9 9 9 9 9 9
2 5 7 5 5 7 8 9 9 8 8 8 9 9 9 5 3 4 4 5 5 4 5 4 5 5 5 5 5 5 5 6 7 6 7 7 7 7 7 8 8 7 8 8 9 8 8 8 8 8 8 8 8 8 9 8 9 9 9 10 10 9 9
2 1 2 4 5 5 6 7 8 7 7 8 9 9 7 3 4 4 4 4 5 5 5 4 4 4 5 5 5 5 6 6 6 6 6 6 6 7 7 7 7 8 8 8 8 8 8 9 8 8 8 8 8 8 8 8 8 9 9 10 10 10 10
Wind_Direction
340 338 337 331 329 324 318 304 292 279 268 259 257 252 250 248 244 243 243 242 242 238 233 232 234 235 232 229 231 233 232 230 230 229 231 230 230 232 230 229 233 243 255 255 237 248 251 224 196 193 199 202 200 199 197 206 218 218 215 216 217 216 216
337 334 332 329 325 327 323 319 309 296 280 270 265 260 256 254 248 248 248 246 246 242 239 236 236 238 235 228 230 231 230 230 230 229 229 229 226 231 232 225 230 239 247 258 241 238 241 239 207 212 195 201 203 201 194 202 211 217 216 215 213 214 215
332 330 328 324 323 325 324 322 321 318 308 296 281 271 265 258 252 250 252 249 247 245 240 240 238 238 235 230 229 228 229 229 233 230 231 229 226 232 233 229 227 234 244 249 250 239 242 232 219 223 222 201 203 205 198 202 208 211 213 215 215 215 218
332 331 327 325 327 328 327 327 325 322 318 311 304 291 278 270 264 258 254 253 252 249 244 243 242 241 241 231 230 235 239 233 230 229 230 230 228 231 234 233 230 231 239 246 256 243 239 238 238 230 221 214 197 203 203 207 210 212 216 214 214 218 220
335 333 333 332 332 331 329 328 325 320 313 306 301 299 294 287 278 269 265 261 257 253 251 249 248 249 243 229 229 239 240 233 226 224 227 230 230 229 230 233 228 231 233 241 245 250 245 245 247 239 226 208 195 202 205 211 211 212 213 213 213 216 222
336 334 332 334 330 331 327 326 322 315 313 310 307 302 299 294 288 282 277 273 267 263 260 256 253 253 248 231 236 242 240 226 230 234 235 237 236 232 226 226 225 225 229 230 238 241 250 241 241 238 228 218 205 203 203 206 212 214 213 207 209 214 215
333 331 333 328 330 328 328 326 323 321 321 324 322 319 311 304 299 293 289 284 282 279 273 268 265 261 251 247 246 247 247 244 240 234 235 236 238 235 233 228 220 218 220 218 230 239 240 244 241 236 235 224 216 216 212 203 199 210 208 207 207 207 204
332 330 335 331 333 330 330 327 324 326 331 327 321 311 307 305 303 300 297 296 294 291 285 282 279 274 268 258 252 251 251 247 244 240 239 234 237 237 236 234 230 223 224 229 227 235 238 236 239 239 233 226 217 210 220 216 209 206 197 205 207 212 206
335 335 337 337 337 336 332 331 327 332 327 310 305 304 301 301 300 300 298 296 298 298 298 295 289 283 276 273 268 263 261 257 251 247 246 237 237 236 235 236 226 224 217 222 224 231 232 236 234 237 232 213 212 210 211 210 203 217 210 192 188 205 206
337 339 335 337 336 335 330 324 323 317 314 316 316 312 304 295 297 306 316 320 325 327 322 316 312 306 301 296 289 281 274 268 262 255 248 247 244 236 231 233 223 217 219 217 223 225 226 233 238 232 238 226 216 216 210 206 200 207 201 160 201 209 213
334 338 336 337 332 327 322 319 318 320 326 328 326 325 350 16 1 352 345 348 349 334 328 330 327 321 321 319 314 308 299 289 280 272 263 255 248 241 234 226 221 216 207 222 229 233 232 231 234 237 234 238 219 212 203 209 203 201 187 189 188 215 214
331 330 334 331 327 321 318 319 322 330 329 329 327 333 20 10 11 352 345 355 352 342 339 334 331 331 329 326 329 327 319 310 302 293 283 274 264 254 246 238 230 225 228 223 230 230 230 230 231 239 233 235 218 209 205 209 200 194 187 201 202 208 212
327 328 332 329 325 319 321 325 323 332 332 331 329 330 21 16 19 0 353 351 344 341 337 336 334 333 335 333 339 335 332 329 323 314 306 295 284 274 263 253 247 240 232 216 227 229 225 226 231 236 236 222 203 183 196 182 199 199 201 200 202 212 214
323 327 329 331 327 323 325 322 324 335 337 334 333 330 19 29 24 357 351 340 336 335 335 336 338 335 333 337 339 333 333 328 320 311 304 295 286 280 276 270 261 254 247 239 229 214 224 226 228 235 233 221 190 202 217 199 210 188 194 199 213 209 207
325 321 328 330 333 329 325 316 336 343 342 341 341 336 355 17 7 341 340 340 332 331 326 340 348 342 338 338 335 327 326 320 312 305 300 291 282 275 275 270 267 258 253 250 243 237 232 240 235 230 236 237 209 209 215 199 201 200 205 209 223 227 202
311 317 330 335 333 333 332 333 346 347 346 347 346 348 343 341 337 339 337 328 332 326 338 1 353 342 336 330 324 320 319 315 312 314 313 307 295 282 271 266 261 261 261 255 249 245 242 236 236 226 230 231 221 212 204 197 212 208 206 202 208 217 196
317 326 336 340 339 343 338 337 342 347 348 350 348 352 344 335 330 331 329 326 328 332 357 348 345 340 332 326 321 318 317 314 315 315 315 311 308 300 287 278 273 266 266 269 266 259 250 245 242 239 236 233 222 204 182 167 179 195 187 199 209 222 219
320 333 352 356 346 352 345 336 338 348 347 349 347 351 346 336 335 327 325 319 336 348 331 330 335 335 334 330 323 321 322 320 319 312 309 310 307 308 302 292 282 266 258 262 266 271 275 275 269 259 248 238 230 217 189 179 192 194 188 200 209 218 216
327 337 355 13 346 359 359 338 340 346 348 350 351 349 350 342 332 327 320 323 340 332 326 329 334 337 340 336 328 327 324 322 319 313 308 310 313 317 332 341 348 332 307 281 261 261 264 269 272 274 269 261 248 230 206 195 192 181 183 193 206 216 216
336 339 349 8 355 5 350 343 344 343 348 349 349 348 348 347 332 327 320 2 350 329 330 338 335 338 342 339 333 327 325 326 338 351 359 351 339 332 334 340 336 324 330 329 301 276 268 267 268 264 260 258 252 248 220 205 189 187 182 190 192 204 211
319 329 330 19 0 18 359 356 345 344 347 345 345 345 347 337 335 315 330 25 359 348 345 342 339 336 339 340 333 333 335 334 339 349 351 344 333 332 335 343 325 321 325 318 316 301 275 268 264 261 259 255 254 244 232 209 204 189 185 188 193 199 201
328 335 339 344 351 7 0 356 351 351 342 342 343 342 344 337 334 19 41 12 8 357 352 341 339 335 337 333 328 331 331 332 338 347 349 334 334 341 347 335 309 309 311 309 311 308 300 279 261 261 253 247 244 244 235 210 204 200 189 196 193 192 198
305 312 339 337 347 347 351 348 352 353 340 335 341 339 340 349 29 37 32 23 6 0 344 344 336 328 326 322 324 326 327 329 338 344 335 337 344 346 343 334 323 317 309 305 303 303 299 299 285 268 260 245 244 239 233 220 204 201 192 199 202 204 194
326 326 320 340 345 345 345 346 346 342 335 331 333 337 345 9 35 42 34 19 5 360 344 338 328 321 324 327 328 328 329 333 342 341 344 349 348 346 342 341 335 327 318 307 298 294 290 291 295 298 279 269 259 249 232 227 203 193 198 201 202 208 212
333 327 327 342 339 339 339 341 342 342 331 330 334 339 0 3 41 39 29 10 355 358 343 330 329 335 339 339 339 339 341 341 346 348 350 351 351 350 348 350 343 336 327 316 308 301 296 287 289 292 296 294 293 299 286 259 244 219 213 208 203 203 208
335 321 321 332 335 335 337 334 350 343 341 336 333 16 14 355 45 30 22 8 349 355 343 341 341 341 343 344 345 346 350 350 346 346 352 354 355 354 355 352 350 341 338 328 324 321 312 312 313 307 309 311 297 276 262 258 245 237 219 216 213 219 226
327 315 326 332 333 336 335 344 358 349 343 331 346 32 7 350 35 17 11 359 356 355 341 341 342 345 343 349 344 352 353 357 350 354 357 359 355 355 352 350 350 340 334 334 333 327 319 314 309 307 308 296 288 278 267 260 253 234 232 217 211 212 215
318 350 345 337 337 336 336 347 0 342 337 323 11 23 7 4 48 15 2 360 353 347 333 335 337 350 350 353 353 357 1 0 359 355 360 356 352 352 350 347 344 342 341 342 334 322 317 319 320 316 307 303 293 285 278 264 246 239 232 220 208 212 219
326 13 8 358 346 341 337 357 349 332 312 328 24 20 10 9 46 27 15 8 357 341 333 353 358 7 3 5 2 2 1 360 358 358 355 354 355 350 352 350 352 348 348 342 334 328 328 325 322 319 314 307 301 299 293 274 256 245 232 222 210 221 222
8 28 21 7 354 10 13 356 337 316 325 3 12 19 10 18 37 48 27 8 359 8 9 10 14 13 11 5 5 3 1 358 357 353 355 352 356 352 355 353 352 350 345 335 331 333 334 331 331 324 322 319 315 310 314 311 298 261 238 220 213 219 223
18 31 48 35 355 30 51 14 347 332 349 8 16 25 11 20 31 36 33 17 6 27 31 17 17 15 12 10 4 6 357 355 354 351 352 348 351 349 353 353 352 348 341 337 341 338 338 333 330 327 326 325 319 319 315 312 312 300 263 244 230 221 222
30 30 42 46 35 34 33 16 5 350 358 14 17 35 19 15 33 31 28 20 25 41 33 21 14 9 9 2 1 359 355 353 352 348 345 344 345 346 349 351 348 341 336 339 343 340 338 335 338 334 332 325 321 320 315 311 305 299 291 274 252 234 222
33 32 31 34 32 34 35 27 11 9 8 22 20 31 34 21 41 42 31 27 37 39 29 22 14 8 3 358 352 351 349 347 348 344 340 340 339 337 340 345 336 333 335 343 340 340 337 340 338 337 331 328 326 325 318 317 313 305 295 289 278 259 238
44 34 32 35 33 31 28 21 15 17 18 25 30 20 25 25 45 49 45 44 36 30 25 15 12 7 4 357 352 350 346 345 345 340 337 336 335 331 332 333 332 338 343 344 339 338 335 336 336 333 332 329 329 323 321 314 311 310 306 295 285 279 268
42 46 33 35 33 30 28 23 15 16 24 39 43 28 11 23 30 30 23 32 33 26 23 11 7 2 357 351 347 346 343 341 338 336 337 334 331 330 329 329 330 334 342 342 338 336 336 337 332 327 330 327 325 327 322 317 317 315 312 312 305 295 281
57 39 3 44 40 25 19 21 14 15 21 30 32 28 19 26 30 21 18 18 17 14 7 1 1 352 349 346 342 341 339 339 334 333 332 329 325 325 326 323 324 330 337 336 335 331 335 335 330 331 327 322 320 316 316 317 318 314 314 311 308 305 298